Zurück zum Katalog

FENGYUN 1C DEB

AktivSSO
NORAD 30464·DEBRIS·🇨🇳 China

Gestartet May 10, 1999 von Taiyuan Satellite Launch Center

Loading…

Nächste Überflüge (nächste 24 Stunden)

TLE

AktuellSource: Space-Track

Epoche: Sep 13, 2026, 17:03 UTC

1 30464U 99025AGB 26256.71042175 -.00000001  00000-0  22683-4 0  9997
2 30464  98.7989 306.6871 0108873 200.8923 285.4997 14.10326822  9351

Verfolge FENGYUN 1C DEB in Echtzeit mit AllMySat

Download on the App Store